owner,sensor,date,latitude,longitude,vertical_datum,wind_speed,wind_to_direction,wind_speed_of_gust,qcFlag 
TCOON,ioos:station:TCOON:009:1,2017-01-01T00:00:00Z,27.8398,-97.0727,0.0,1.5,202.0,2.6,'11111222,11111222,11111222' 
TCOON,ioos:station:TCOON:009:1,2017-01-01T00:06:00Z,27.8398,-97.0727,0.0,1.1,206.0,2.1,'11111222,11111222,11111222' 
TCOON,ioos:station:TCOON:009:1,2017-01-01T00:12:00Z,27.8398,-97.0727,0.0,1.2,198.0,1.9,'11111222,11111222,11111222' 
TCOON,ioos:station:TCOON:009:1,2017-01-01T00:18:00Z,27.8398,-97.0727,0.0,1.4,197.0,2.0,'11111222,11111222,11111222' 
TCOON,ioos:station:TCOON:009:1,2017-01-01T00:24:00Z,27.8398,-97.0727,0.0,1.4,197.0,2.0,'1111122,1111122,1111122' 
TCOON,ioos:station:TCOON:009:1,2017-01-01T00:30:00Z,27.8398,-97.0727,0.0,1.9,190.0,2.4,'11111222,11111222,11111222' 
TCOON,ioos:station:TCOON:009:1,2017-01-01T00:36:00Z,27.8398,-97.0727,0.0,1.8,176.0,2.2,'11111222,11111222,11111222' 
TCOON,ioos:station:TCOON:009:1,2017-01-01T00:42:00Z,27.8398,-97.0727,0.0,1.6,187.0,2.3,'11111222,11111222,11111222' 
TCOON,ioos:station:TCOON:009:1,2017-01-01T00:48:00Z,27.8398,-97.0727,0.0,1.8,167.0,2.2,'11111222,11111222,11111222' 
TCOON,ioos:station:TCOON:009:1,2017-01-01T00:54:00Z,27.8398,-97.0727,0.0,1.2,169.0,2.3,'11111222,11111222,11111222' 
TCOON,ioos:station:TCOON:009:1,2017-01-01T01:00:00Z,27.8398,-97.0727,0.0,1.3,175.0,2.2,'11111222,11111222,11111222' 
TCOON,ioos:station:TCOON:009:1,2017-01-01T01:06:00Z,27.8398,-97.0727,0.0,1.2,174.0,1.9,'11111222,11111222,11111222' 
TCOON,ioos:station:TCOON:009:1,2017-01-01T01:12:00Z,27.8398,-97.0727,0.0,1.0,162.0,1.8,'11111222,11111222,11111222' 
TCOON,ioos:station:TCOON:009:1,2017-01-01T01:18:00Z,27.8398,-97.0727,0.0,1.0,162.0,1.8,'1111122,1111122,1111122' 
TCOON,ioos:station:TCOON:009:1,2017-01-01T01:24:00Z,27.8398,-97.0727,0.0,1.4,171.0,1.6,'11111222,11111222,11111222' 
TCOON,ioos:station:TCOON:009:1,2017-01-01T01:30:00Z,27.8398,-97.0727,0.0,0.9,165.0,1.5,'11111222,11111222,11111222' 
TCOON,ioos:station:TCOON:009:1,2017-01-01T01:36:00Z,27.8398,-97.0727,0.0,0.6,158.0,1.0,'11111222,11111222,11111222' 
TCOON,ioos:station:TCOON:009:1,2017-01-01T01:42:00Z,27.8398,-97.0727,0.0,0.8,155.0,1.1,'11111222,11111222,11111222' 
TCOON,ioos:station:TCOON:009:1,2017-01-01T01:48:00Z,27.8398,-97.0727,0.0,0.7,137.0,1.1,'11111222,11111222,11111222' 
TCOON,ioos:station:TCOON:009:1,2017-01-01T01:54:00Z,27.8398,-97.0727,0.0,0.9,115.0,1.1,'11111222,11111222,11111222' 
TCOON,ioos:station:TCOON:009:1,2017-01-01T02:00:00Z,27.8398,-97.0727,0.0,0.8,114.0,1.2,'11111222,11111222,11111222' 
TCOON,ioos:station:TCOON:009:1,2017-01-01T02:06:00Z,27.8398,-97.0727,0.0,0.8,146.0,1.5,'11111222,11111222,11111222' 
TCOON,ioos:station:TCOON:009:1,2017-01-01T02:12:00Z,27.8398,-97.0727,0.0,1.2,160.0,1.8,'11111222,11111222,11111222' 
TCOON,ioos:station:TCOON:009:1,2017-01-01T02:18:00Z,27.8398,-97.0727,0.0,1.2,160.0,1.8,'1111122,1111122,1111122' 
TCOON,ioos:station:TCOON:009:1,2017-01-01T02:24:00Z,27.8398,-97.0727,0.0,1.5,166.0,1.9,'11111222,11111222,11111222' 
TCOON,ioos:station:TCOON:009:1,2017-01-01T02:30:00Z,27.8398,-97.0727,0.0,1.3,161.0,2.1,'11111222,11111222,11111222' 
TCOON,ioos:station:TCOON:009:1,2017-01-01T02:36:00Z,27.8398,-97.0727,0.0,1.0,155.0,1.5,'11111222,11111222,11111222' 
TCOON,ioos:station:TCOON:009:1,2017-01-01T02:42:00Z,27.8398,-97.0727,0.0,1.1,167.0,1.6,'11111222,11111222,11111222' 
TCOON,ioos:station:TCOON:009:1,2017-01-01T02:48:00Z,27.8398,-97.0727,0.0,1.1,158.0,1.3,'11111222,11111222,11111222' 
TCOON,ioos:station:TCOON:009:1,2017-01-01T02:54:00Z,27.8398,-97.0727,0.0,0.6,159.0,1.4,'11111222,11111222,11111222' 
TCOON,ioos:station:TCOON:009:1,2017-01-01T03:00:00Z,27.8398,-97.0727,0.0,0.0,195.0,0.9,'11111222,11111222,11111222' 
TCOON,ioos:station:TCOON:009:1,2017-01-01T03:06:00Z,27.8398,-97.0727,0.0,0.1,350.0,0.4,'11111222,11111222,11111222' 
TCOON,ioos:station:TCOON:009:1,2017-01-01T03:12:00Z,27.8398,-97.0727,0.0,1.1,151.0,1.3,'11111222,11111222,11111222' 
TCOON,ioos:station:TCOON:009:1,2017-01-01T03:18:00Z,27.8398,-97.0727,0.0,1.1,151.0,1.3,'1111122,1111122,1111122' 
TCOON,ioos:station:TCOON:009:1,2017-01-01T03:24:00Z,27.8398,-97.0727,0.0,1.3,152.0,1.6,'11111222,11111222,11111222' 
TCOON,ioos:station:TCOON:009:1,2017-01-01T03:30:00Z,27.8398,-97.0727,0.0,1.0,140.0,1.5,'11111222,11111222,11111222' 
TCOON,ioos:station:TCOON:009:1,2017-01-01T03:36:00Z,27.8398,-97.0727,0.0,0.1,120.0,0.8,'11111222,11111222,11111222' 
TCOON,ioos:station:TCOON:009:1,2017-01-01T03:42:00Z,27.8398,-97.0727,0.0,1.0,104.0,1.2,'11111222,11111222,11111222' 
TCOON,ioos:station:TCOON:009:1,2017-01-01T03:48:00Z,27.8398,-97.0727,0.0,1.0,106.0,1.4,'11111222,11111222,11111222' 
TCOON,ioos:station:TCOON:009:1,2017-01-01T03:54:00Z,27.8398,-97.0727,0.0,1.2,71.0,1.4,'11111222,11111222,11111222' 
TCOON,ioos:station:TCOON:009:1,2017-01-01T04:00:00Z,27.8398,-97.0727,0.0,1.1,98.0,1.3,'11111222,11111222,11111222' 
TCOON,ioos:station:TCOON:009:1,2017-01-01T04:06:00Z,27.8398,-97.0727,0.0,1.4,110.0,2.0,'11111222,11111222,11111222' 
TCOON,ioos:station:TCOON:009:1,2017-01-01T04:12:00Z,27.8398,-97.0727,0.0,1.3,99.0,1.7,'11111222,11111222,11111222' 
TCOON,ioos:station:TCOON:009:1,2017-01-01T04:18:00Z,27.8398,-97.0727,0.0,1.8,115.0,2.2,'11111222,11111222,11111222' 
TCOON,ioos:station:TCOON:009:1,2017-01-01T04:24:00Z,27.8398,-97.0727,0.0,1.4,108.0,2.2,'11111222,11111222,11111222' 
TCOON,ioos:station:TCOON:009:1,2017-01-01T04:30:00Z,27.8398,-97.0727,0.0,1.4,108.0,2.2,'1111122,1111122,1111122' 
TCOON,ioos:station:TCOON:009:1,2017-01-01T04:36:00Z,27.8398,-97.0727,0.0,1.0,131.0,1.3,'11111222,11111222,11111222' 
TCOON,ioos:station:TCOON:009:1,2017-01-01T04:42:00Z,27.8398,-97.0727,0.0,1.8,128.0,2.0,'11111222,11111222,11111222' 
TCOON,ioos:station:TCOON:009:1,2017-01-01T04:48:00Z,27.8398,-97.0727,0.0,1.6,121.0,2.1,'11111222,11111222,11111222' 
TCOON,ioos:station:TCOON:009:1,2017-01-01T04:54:00Z,27.8398,-97.0727,0.0,2.0,126.0,2.2,'11111222,11111222,11111222' 
TCOON,ioos:station:TCOON:009:1,2017-01-01T05:00:00Z,27.8398,-97.0727,0.0,2.2,130.0,2.4,'11111222,11111222,11111222' 
TCOON,ioos:station:TCOON:009:1,2017-01-01T05:06:00Z,27.8398,-97.0727,0.0,1.8,134.0,2.2,'11111222,11111222,11111222' 
TCOON,ioos:station:TCOON:009:1,2017-01-01T05:12:00Z,27.8398,-97.0727,0.0,1.9,136.0,2.6,'11111222,11111222,11111222' 
TCOON,ioos:station:TCOON:009:1,2017-01-01T05:18:00Z,27.8398,-97.0727,0.0,2.1,126.0,2.7,'11111222,11111222,11111222' 
TCOON,ioos:station:TCOON:009:1,2017-01-01T05:24:00Z,27.8398,-97.0727,0.0,2.1,126.0,2.7,'1111122,1111122,1111122' 
TCOON,ioos:station:TCOON:009:1,2017-01-01T05:30:00Z,27.8398,-97.0727,0.0,1.9,124.0,2.3,'11111222,11111222,11111222' 
TCOON,ioos:station:TCOON:009:1,2017-01-01T05:36:00Z,27.8398,-97.0727,0.0,1.8,110.0,2.3,'11111222,11111222,11111222' 
TCOON,ioos:station:TCOON:009:1,2017-01-01T05:42:00Z,27.8398,-97.0727,0.0,1.9,109.0,2.4,'11111222,11111222,11111222' 
TCOON,ioos:station:TCOON:009:1,2017-01-01T05:48:00Z,27.8398,-97.0727,0.0,1.7,109.0,2.2,'11111222,11111222,11111222' 
TCOON,ioos:station:TCOON:009:1,2017-01-01T05:54:00Z,27.8398,-97.0727,0.0,1.6,109.0,2.2,'11111222,11111222,11111222' 
TCOON,ioos:station:TCOON:009:1,2017-01-01T06:00:00Z,27.8398,-97.0727,0.0,1.9,119.0,2.1,'11111222,11111222,11111222' 
TCOON,ioos:station:TCOON:009:1,2017-01-01T06:06:00Z,27.8398,-97.0727,0.0,2.0,120.0,2.5,'11111222,11111222,11111222' 
TCOON,ioos:station:TCOON:009:1,2017-01-01T06:12:00Z,27.8398,-97.0727,0.0,2.1,124.0,2.5,'11111222,11111222,11111222' 
TCOON,ioos:station:TCOON:009:1,2017-01-01T06:18:00Z,27.8398,-97.0727,0.0,2.1,124.0,2.5,'1111122,1111122,1111122' 
TCOON,ioos:station:TCOON:009:1,2017-01-01T06:24:00Z,27.8398,-97.0727,0.0,1.5,126.0,2.2,'11111222,11111222,11111222' 
TCOON,ioos:station:TCOON:009:1,2017-01-01T06:30:00Z,27.8398,-97.0727,0.0,1.7,114.0,2.3,'11111222,11111222,11111222' 
TCOON,ioos:station:TCOON:009:1,2017-01-01T06:36:00Z,27.8398,-97.0727,0.0,1.7,109.0,2.4,'11111222,11111222,11111222' 
TCOON,ioos:station:TCOON:009:1,2017-01-01T06:42:00Z,27.8398,-97.0727,0.0,1.3,136.0,2.2,'11111222,11111222,11111222' 
TCOON,ioos:station:TCOON:009:1,2017-01-01T06:48:00Z,27.8398,-97.0727,0.0,2.1,128.0,2.7,'11111222,11111222,11111222' 
TCOON,ioos:station:TCOON:009:1,2017-01-01T06:54:00Z,27.8398,-97.0727,0.0,1.8,130.0,2.8,'11111222,11111222,11111222' 
TCOON,ioos:station:TCOON:009:1,2017-01-01T07:00:00Z,27.8398,-97.0727,0.0,1.5,134.0,2.4,'11111222,11111222,11111222' 
TCOON,ioos:station:TCOON:009:1,2017-01-01T07:06:00Z,27.8398,-97.0727,0.0,1.3,131.0,2.0,'11111222,11111222,11111222' 
TCOON,ioos:station:TCOON:009:1,2017-01-01T07:12:00Z,27.8398,-97.0727,0.0,1.6,122.0,2.0,'11111222,11111222,11111222' 
TCOON,ioos:station:TCOON:009:1,2017-01-01T07:18:00Z,27.8398,-97.0727,0.0,1.6,122.0,2.0,'1111122,1111122,1111122' 
TCOON,ioos:station:TCOON:009:1,2017-01-01T07:24:00Z,27.8398,-97.0727,0.0,0.9,152.0,2.0,'11111222,11111222,11111222' 
TCOON,ioos:station:TCOON:009:1,2017-01-01T07:30:00Z,27.8398,-97.0727,0.0,0.7,119.0,1.3,'11111222,11111222,11111222' 
TCOON,ioos:station:TCOON:009:1,2017-01-01T07:36:00Z,27.8398,-97.0727,0.0,0.9,130.0,1.2,'11111222,11111222,11111222' 
TCOON,ioos:station:TCOON:009:1,2017-01-01T07:42:00Z,27.8398,-97.0727,0.0,1.4,138.0,1.6,'11111222,11111222,11111222' 
TCOON,ioos:station:TCOON:009:1,2017-01-01T07:48:00Z,27.8398,-97.0727,0.0,1.4,139.0,1.9,'11111222,11111222,11111222' 
TCOON,ioos:station:TCOON:009:1,2017-01-01T07:54:00Z,27.8398,-97.0727,0.0,1.1,155.0,2.0,'11111222,11111222,11111222' 
TCOON,ioos:station:TCOON:009:1,2017-01-01T08:00:00Z,27.8398,-97.0727,0.0,1.5,172.0,2.3,'11111222,11111222,11111222' 
TCOON,ioos:station:TCOON:009:1,2017-01-01T08:06:00Z,27.8398,-97.0727,0.0,1.7,197.0,2.4,'11111222,11111222,11111222' 
TCOON,ioos:station:TCOON:009:1,2017-01-01T08:12:00Z,27.8398,-97.0727,0.0,2.4,220.0,3.4,'11111222,11111222,11111222' 
TCOON,ioos:station:TCOON:009:1,2017-01-01T08:18:00Z,27.8398,-97.0727,0.0,2.4,220.0,3.4,'1111122,1111122,1111122' 
TCOON,ioos:station:TCOON:009:1,2017-01-01T08:24:00Z,27.8398,-97.0727,0.0,1.3,198.0,2.1,'11111222,11111222,11111222' 
TCOON,ioos:station:TCOON:009:1,2017-01-01T08:30:00Z,27.8398,-97.0727,0.0,1.3,199.0,2.2,'11111222,11111222,11111222' 
TCOON,ioos:station:TCOON:009:1,2017-01-01T08:36:00Z,27.8398,-97.0727,0.0,0.7,247.0,1.8,'11111222,11111222,11111222' 
TCOON,ioos:station:TCOON:009:1,2017-01-01T08:42:00Z,27.8398,-97.0727,0.0,0.7,260.0,1.3,'11111222,11111222,11111222' 
TCOON,ioos:station:TCOON:009:1,2017-01-01T08:48:00Z,27.8398,-97.0727,0.0,1.0,180.0,1.3,'11111222,11111222,11111222' 
TCOON,ioos:station:TCOON:009:1,2017-01-01T08:54:00Z,27.8398,-97.0727,0.0,0.9,199.0,2.1,'11111222,11111222,11111222' 
TCOON,ioos:station:TCOON:009:1,2017-01-01T09:00:00Z,27.8398,-97.0727,0.0,1.8,210.0,2.4,'11111222,11111222,11111222' 
TCOON,ioos:station:TCOON:009:1,2017-01-01T09:06:00Z,27.8398,-97.0727,0.0,1.5,224.0,2.1,'11111222,11111222,11111222' 
TCOON,ioos:station:TCOON:009:1,2017-01-01T09:12:00Z,27.8398,-97.0727,0.0,1.8,224.0,2.9,'11111222,11111222,11111222' 
TCOON,ioos:station:TCOON:009:1,2017-01-01T09:18:00Z,27.8398,-97.0727,0.0,1.3,237.0,2.6,'11111222,11111222,11111222' 
TCOON,ioos:station:TCOON:009:1,2017-01-01T09:24:00Z,27.8398,-97.0727,0.0,1.3,237.0,2.6,'1111122,1111122,1111122' 
TCOON,ioos:station:TCOON:009:1,2017-01-01T09:30:00Z,27.8398,-97.0727,0.0,1.1,258.0,1.8,'11111222,11111222,11111222' 
TCOON,ioos:station:TCOON:009:1,2017-01-01T09:36:00Z,27.8398,-97.0727,0.0,2.0,274.0,2.2,'11111222,11111222,11111222' 
TCOON,ioos:station:TCOON:009:1,2017-01-01T09:42:00Z,27.8398,-97.0727,0.0,1.0,295.0,2.1,'11111222,11111222,11111222' 
TCOON,ioos:station:TCOON:009:1,2017-01-01T09:48:00Z,27.8398,-97.0727,0.0,0.2,247.0,0.9,'11111222,11111222,11111222' 
TCOON,ioos:station:TCOON:009:1,2017-01-01T09:54:00Z,27.8398,-97.0727,0.0,0.7,195.0,0.8,'11111222,11111222,11111222' 
TCOON,ioos:station:TCOON:009:1,2017-01-01T10:00:00Z,27.8398,-97.0727,0.0,1.3,185.0,1.6,'11111222,11111222,11111222' 
TCOON,ioos:station:TCOON:009:1,2017-01-01T10:06:00Z,27.8398,-97.0727,0.0,1.1,202.0,1.9,'11111222,11111222,11111222' 
TCOON,ioos:station:TCOON:009:1,2017-01-01T10:12:00Z,27.8398,-97.0727,0.0,1.1,194.0,2.0,'11111222,11111222,11111222' 
TCOON,ioos:station:TCOON:009:1,2017-01-01T10:18:00Z,27.8398,-97.0727,0.0,1.1,194.0,2.0,'1111122,1111122,1111122' 
TCOON,ioos:station:TCOON:009:1,2017-01-01T10:24:00Z,27.8398,-97.0727,0.0,1.2,166.0,1.6,'11111222,11111222,11111222' 
TCOON,ioos:station:TCOON:009:1,2017-01-01T10:30:00Z,27.8398,-97.0727,0.0,0.9,156.0,1.9,'11111222,11111222,11111222' 
TCOON,ioos:station:TCOON:009:1,2017-01-01T10:36:00Z,27.8398,-97.0727,0.0,1.5,180.0,1.8,'11111222,11111222,11111222' 
TCOON,ioos:station:TCOON:009:1,2017-01-01T10:42:00Z,27.8398,-97.0727,0.0,1.6,186.0,2.0,'11111222,11111222,11111222' 
TCOON,ioos:station:TCOON:009:1,2017-01-01T10:48:00Z,27.8398,-97.0727,0.0,1.4,192.0,2.1,'11111222,11111222,11111222' 
TCOON,ioos:station:TCOON:009:1,2017-01-01T10:54:00Z,27.8398,-97.0727,0.0,1.6,192.0,2.2,'11111222,11111222,11111222' 
TCOON,ioos:station:TCOON:009:1,2017-01-01T11:00:00Z,27.8398,-97.0727,0.0,1.3,203.0,2.6,'11111222,11111222,11111222' 
TCOON,ioos:station:TCOON:009:1,2017-01-01T11:06:00Z,27.8398,-97.0727,0.0,2.3,207.0,2.9,'11111222,11111222,11111222' 
TCOON,ioos:station:TCOON:009:1,2017-01-01T11:12:00Z,27.8398,-97.0727,0.0,2.4,204.0,3.3,'11111222,11111222,11111222' 
TCOON,ioos:station:TCOON:009:1,2017-01-01T11:18:00Z,27.8398,-97.0727,0.0,2.4,204.0,3.3,'1111122,1111122,1111122' 
TCOON,ioos:station:TCOON:009:1,2017-01-01T11:24:00Z,27.8398,-97.0727,0.0,2.7,178.0,3.4,'11111222,11111222,11111222' 
TCOON,ioos:station:TCOON:009:1,2017-01-01T11:30:00Z,27.8398,-97.0727,0.0,2.8,210.0,3.6,'11111222,11111222,11111222' 
TCOON,ioos:station:TCOON:009:1,2017-01-01T11:36:00Z,27.8398,-97.0727,0.0,2.6,205.0,3.6,'11111222,11111222,11111222' 
TCOON,ioos:station:TCOON:009:1,2017-01-01T11:42:00Z,27.8398,-97.0727,0.0,2.1,199.0,3.2,'11111222,11111222,11111222' 
TCOON,ioos:station:TCOON:009:1,2017-01-01T11:48:00Z,27.8398,-97.0727,0.0,2.4,192.0,3.9,'11111222,11111222,11111222' 
TCOON,ioos:station:TCOON:009:1,2017-01-01T11:54:00Z,27.8398,-97.0727,0.0,2.7,226.0,4.1,'11111222,11111222,11111222' 
TCOON,ioos:station:TCOON:009:1,2017-01-01T12:00:00Z,27.8398,-97.0727,0.0,2.7,233.0,4.8,'11111222,11111222,11111222' 
TCOON,ioos:station:TCOON:009:1,2017-01-01T12:06:00Z,27.8398,-97.0727,0.0,2.2,244.0,4.1,'11111222,11111222,11111222' 
TCOON,ioos:station:TCOON:009:1,2017-01-01T12:12:00Z,27.8398,-97.0727,0.0,4.4,275.0,5.4,'11111222,11111222,11111222' 
TCOON,ioos:station:TCOON:009:1,2017-01-01T12:18:00Z,27.8398,-97.0727,0.0,4.4,275.0,5.4,'1111122,1111122,1111122' 
TCOON,ioos:station:TCOON:009:1,2017-01-01T12:24:00Z,27.8398,-97.0727,0.0,6.5,272.0,7.6,'11111222,11111222,11111222' 
TCOON,ioos:station:TCOON:009:1,2017-01-01T12:30:00Z,27.8398,-97.0727,0.0,7.0,277.0,8.2,'11111222,11111222,11111222' 
TCOON,ioos:station:TCOON:009:1,2017-01-01T12:36:00Z,27.8398,-97.0727,0.0,4.8,259.0,7.3,'11111222,11111222,11111222' 
TCOON,ioos:station:TCOON:009:1,2017-01-01T12:42:00Z,27.8398,-97.0727,0.0,2.0,272.0,4.4,'11111222,11111222,11111222' 
TCOON,ioos:station:TCOON:009:1,2017-01-01T12:48:00Z,27.8398,-97.0727,0.0,1.5,208.0,2.2,'11111222,11111222,11111222' 
TCOON,ioos:station:TCOON:009:1,2017-01-01T12:54:00Z,27.8398,-97.0727,0.0,2.3,145.0,3.7,'11111222,11111222,11111222' 
TCOON,ioos:station:TCOON:009:1,2017-01-01T13:00:00Z,27.8398,-97.0727,0.0,4.2,115.0,4.8,'11111222,11111222,11111222' 
TCOON,ioos:station:TCOON:009:1,2017-01-01T13:06:00Z,27.8398,-97.0727,0.0,2.5,129.0,4.0,'11111222,11111222,11111222' 
TCOON,ioos:station:TCOON:009:1,2017-01-01T13:12:00Z,27.8398,-97.0727,0.0,3.6,115.0,4.2,'11111222,11111222,11111222' 
TCOON,ioos:station:TCOON:009:1,2017-01-01T13:18:00Z,27.8398,-97.0727,0.0,3.6,115.0,4.2,'1111122,1111122,1111122' 
TCOON,ioos:station:TCOON:009:1,2017-01-01T13:24:00Z,27.8398,-97.0727,0.0,3.8,116.0,5.1,'11111222,11111222,11111222' 
TCOON,ioos:station:TCOON:009:1,2017-01-01T13:30:00Z,27.8398,-97.0727,0.0,3.9,136.0,5.4,'11111222,11111222,11111222' 
TCOON,ioos:station:TCOON:009:1,2017-01-01T13:36:00Z,27.8398,-97.0727,0.0,3.1,137.0,5.2,'11111222,11111222,11111222' 
TCOON,ioos:station:TCOON:009:1,2017-01-01T13:42:00Z,27.8398,-97.0727,0.0,6.3,124.0,7.3,'11111222,11111222,11111222' 
TCOON,ioos:station:TCOON:009:1,2017-01-01T13:48:00Z,27.8398,-97.0727,0.0,6.0,120.0,8.4,'11111222,11111222,11111222' 
TCOON,ioos:station:TCOON:009:1,2017-01-01T13:54:00Z,27.8398,-97.0727,0.0,4.4,133.0,7.0,'11111222,11111222,11111222' 
TCOON,ioos:station:TCOON:009:1,2017-01-01T14:00:00Z,27.8398,-97.0727,0.0,4.1,144.0,6.8,'11111222,11111222,11111222' 
TCOON,ioos:station:TCOON:009:1,2017-01-01T14:06:00Z,27.8398,-97.0727,0.0,5.6,126.0,7.3,'11111222,11111222,11111222' 
TCOON,ioos:station:TCOON:009:1,2017-01-01T14:12:00Z,27.8398,-97.0727,0.0,5.0,136.0,8.2,'11111222,11111222,11111222' 
TCOON,ioos:station:TCOON:009:1,2017-01-01T14:18:00Z,27.8398,-97.0727,0.0,4.2,142.0,7.4,'11111222,11111222,11111222' 
TCOON,ioos:station:TCOON:009:1,2017-01-01T14:24:00Z,27.8398,-97.0727,0.0,4.2,142.0,7.4,'1111122,1111122,1111122' 
TCOON,ioos:station:TCOON:009:1,2017-01-01T14:30:00Z,27.8398,-97.0727,0.0,3.3,139.0,7.7,'11111222,11111222,11111222' 
TCOON,ioos:station:TCOON:009:1,2017-01-01T14:36:00Z,27.8398,-97.0727,0.0,2.3,136.0,5.6,'11111222,11111222,11111222' 
TCOON,ioos:station:TCOON:009:1,2017-01-01T14:42:00Z,27.8398,-97.0727,0.0,2.8,132.0,5.0,'11111222,11111222,11111222' 
TCOON,ioos:station:TCOON:009:1,2017-01-01T14:48:00Z,27.8398,-97.0727,0.0,3.2,150.0,5.5,'11111222,11111222,11111222' 
TCOON,ioos:station:TCOON:009:1,2017-01-01T14:54:00Z,27.8398,-97.0727,0.0,5.0,127.0,6.8,'11111222,11111222,11111222' 
TCOON,ioos:station:TCOON:009:1,2017-01-01T15:00:00Z,27.8398,-97.0727,0.0,5.2,130.0,7.3,'11111222,11111222,11111222' 
TCOON,ioos:station:TCOON:009:1,2017-01-01T15:06:00Z,27.8398,-97.0727,0.0,5.8,122.0,8.0,'11111222,11111222,11111222' 
TCOON,ioos:station:TCOON:009:1,2017-01-01T15:12:00Z,27.8398,-97.0727,0.0,6.6,123.0,8.0,'11111222,11111222,11111222' 
TCOON,ioos:station:TCOON:009:1,2017-01-01T15:18:00Z,27.8398,-97.0727,0.0,6.6,123.0,8.0,'1111122,1111122,1111122' 
TCOON,ioos:station:TCOON:009:1,2017-01-01T15:24:00Z,27.8398,-97.0727,0.0,5.4,129.0,8.1,'11111222,11111222,11111222' 
TCOON,ioos:station:TCOON:009:1,2017-01-01T15:30:00Z,27.8398,-97.0727,0.0,5.9,124.0,8.7,'11111222,11111222,11111222' 
TCOON,ioos:station:TCOON:009:1,2017-01-01T15:36:00Z,27.8398,-97.0727,0.0,5.0,115.0,8.3,'11111222,11111222,11111222' 
TCOON,ioos:station:TCOON:009:1,2017-01-01T15:42:00Z,27.8398,-97.0727,0.0,3.2,104.0,7.6,'11111222,11111222,11111222' 
TCOON,ioos:station:TCOON:009:1,2017-01-01T15:48:00Z,27.8398,-97.0727,0.0,3.0,20.0,4.3,'11111222,11111222,11111222' 
TCOON,ioos:station:TCOON:009:1,2017-01-01T15:54:00Z,27.8398,-97.0727,0.0,0.9,64.0,2.7,'11111222,11111222,11111222' 
TCOON,ioos:station:TCOON:009:1,2017-01-01T16:00:00Z,27.8398,-97.0727,0.0,2.3,134.0,3.1,'11111222,11111222,11111222' 
TCOON,ioos:station:TCOON:009:1,2017-01-01T16:06:00Z,27.8398,-97.0727,0.0,2.9,112.0,5.8,'11111222,11111222,11111222' 
TCOON,ioos:station:TCOON:009:1,2017-01-01T16:12:00Z,27.8398,-97.0727,0.0,3.1,12.0,4.4,'11111222,11111222,11111222' 
TCOON,ioos:station:TCOON:009:1,2017-01-01T16:18:00Z,27.8398,-97.0727,0.0,3.1,12.0,4.4,'1111122,1111122,1111122' 
TCOON,ioos:station:TCOON:009:1,2017-01-01T16:24:00Z,27.8398,-97.0727,0.0,1.1,100.0,2.7,'11111222,11111222,11111222' 
TCOON,ioos:station:TCOON:009:1,2017-01-01T16:30:00Z,27.8398,-97.0727,0.0,1.3,302.0,2.0,'11111222,11111222,11111222' 
TCOON,ioos:station:TCOON:009:1,2017-01-01T16:36:00Z,27.8398,-97.0727,0.0,1.4,5.0,1.9,'11111222,11111222,11111222' 
TCOON,ioos:station:TCOON:009:1,2017-01-01T16:42:00Z,27.8398,-97.0727,0.0,0.2,242.0,1.4,'11111222,11111222,11111222' 
TCOON,ioos:station:TCOON:009:1,2017-01-01T16:48:00Z,27.8398,-97.0727,0.0,0.2,177.0,1.0,'11111222,11111222,11111222' 
TCOON,ioos:station:TCOON:009:1,2017-01-01T16:54:00Z,27.8398,-97.0727,0.0,2.1,333.0,2.5,'11111222,11111222,11111222' 
TCOON,ioos:station:TCOON:009:1,2017-01-01T17:00:00Z,27.8398,-97.0727,0.0,1.0,312.0,2.4,'11111222,11111222,11111222' 
TCOON,ioos:station:TCOON:009:1,2017-01-01T17:06:00Z,27.8398,-97.0727,0.0,2.2,295.0,2.5,'11111222,11111222,11111222' 
TCOON,ioos:station:TCOON:009:1,2017-01-01T17:12:00Z,27.8398,-97.0727,0.0,3.7,294.0,4.3,'11111222,11111222,11111222' 
TCOON,ioos:station:TCOON:009:1,2017-01-01T17:18:00Z,27.8398,-97.0727,0.0,3.7,294.0,4.3,'1111122,1111122,1111122' 
TCOON,ioos:station:TCOON:009:1,2017-01-01T17:24:00Z,27.8398,-97.0727,0.0,3.1,307.0,4.1,'11111222,11111222,11111222' 
TCOON,ioos:station:TCOON:009:1,2017-01-01T17:30:00Z,27.8398,-97.0727,0.0,4.1,295.0,4.3,'11111222,11111222,11111222' 
TCOON,ioos:station:TCOON:009:1,2017-01-01T17:36:00Z,27.8398,-97.0727,0.0,2.6,287.0,4.1,'11111222,11111222,11111222' 
TCOON,ioos:station:TCOON:009:1,2017-01-01T17:42:00Z,27.8398,-97.0727,0.0,3.7,283.0,4.2,'11111222,11111222,11111222' 
TCOON,ioos:station:TCOON:009:1,2017-01-01T17:48:00Z,27.8398,-97.0727,0.0,3.5,266.0,4.1,'11111222,11111222,11111222' 
TCOON,ioos:station:TCOON:009:1,2017-01-01T17:54:00Z,27.8398,-97.0727,0.0,3.2,262.0,3.9,'11111222,11111222,11111222' 
TCOON,ioos:station:TCOON:009:1,2017-01-01T18:00:00Z,27.8398,-97.0727,0.0,3.7,261.0,4.1,'11111222,11111222,11111222' 
TCOON,ioos:station:TCOON:009:1,2017-01-01T18:06:00Z,27.8398,-97.0727,0.0,4.0,264.0,4.5,'11111222,11111222,11111222' 
TCOON,ioos:station:TCOON:009:1,2017-01-01T18:12:00Z,27.8398,-97.0727,0.0,4.0,265.0,4.2,'11111222,11111222,11111222' 
TCOON,ioos:station:TCOON:009:1,2017-01-01T18:18:00Z,27.8398,-97.0727,0.0,3.9,256.0,4.5,'11111222,11111222,11111222' 
TCOON,ioos:station:TCOON:009:1,2017-01-01T18:24:00Z,27.8398,-97.0727,0.0,3.9,256.0,4.5,'1111122,1111122,1111122' 
TCOON,ioos:station:TCOON:009:1,2017-01-01T18:30:00Z,27.8398,-97.0727,0.0,3.8,257.0,4.5,'11111222,11111222,11111222' 
TCOON,ioos:station:TCOON:009:1,2017-01-01T18:36:00Z,27.8398,-97.0727,0.0,3.5,258.0,4.3,'11111222,11111222,11111222' 
TCOON,ioos:station:TCOON:009:1,2017-01-01T18:42:00Z,27.8398,-97.0727,0.0,3.1,267.0,4.0,'11111222,11111222,11111222' 
TCOON,ioos:station:TCOON:009:1,2017-01-01T18:48:00Z,27.8398,-97.0727,0.0,3.0,251.0,4.1,'11111222,11111222,11111222' 
TCOON,ioos:station:TCOON:009:1,2017-01-01T18:54:00Z,27.8398,-97.0727,0.0,3.4,251.0,4.1,'11111222,11111222,11111222' 
TCOON,ioos:station:TCOON:009:1,2017-01-01T19:00:00Z,27.8398,-97.0727,0.0,3.8,257.0,4.2,'11111222,11111222,11111222' 
TCOON,ioos:station:TCOON:009:1,2017-01-01T19:06:00Z,27.8398,-97.0727,0.0,3.2,260.0,4.4,'11111222,11111222,11111222' 
TCOON,ioos:station:TCOON:009:1,2017-01-01T19:12:00Z,27.8398,-97.0727,0.0,2.5,261.0,3.4,'11111222,11111222,11111222' 
TCOON,ioos:station:TCOON:009:1,2017-01-01T19:18:00Z,27.8398,-97.0727,0.0,2.5,261.0,3.4,'1111122,1111122,1111122' 
TCOON,ioos:station:TCOON:009:1,2017-01-01T19:24:00Z,27.8398,-97.0727,0.0,1.9,247.0,2.8,'11111222,11111222,11111222' 
TCOON,ioos:station:TCOON:009:1,2017-01-01T19:30:00Z,27.8398,-97.0727,0.0,2.0,220.0,2.7,'11111222,11111222,11111222' 
TCOON,ioos:station:TCOON:009:1,2017-01-01T19:36:00Z,27.8398,-97.0727,0.0,2.6,218.0,3.4,'11111222,11111222,11111222' 
TCOON,ioos:station:TCOON:009:1,2017-01-01T19:42:00Z,27.8398,-97.0727,0.0,2.4,216.0,3.4,'11111222,11111222,11111222' 
TCOON,ioos:station:TCOON:009:1,2017-01-01T19:48:00Z,27.8398,-97.0727,0.0,2.5,211.0,3.3,'11111222,11111222,11111222' 
TCOON,ioos:station:TCOON:009:1,2017-01-01T19:54:00Z,27.8398,-97.0727,0.0,2.5,202.0,3.4,'11111222,11111222,11111222' 
TCOON,ioos:station:TCOON:009:1,2017-01-01T20:00:00Z,27.8398,-97.0727,0.0,3.0,186.0,3.7,'11111222,11111222,11111222' 
TCOON,ioos:station:TCOON:009:1,2017-01-01T20:06:00Z,27.8398,-97.0727,0.0,2.2,200.0,3.4,'11111222,11111222,11111222' 
TCOON,ioos:station:TCOON:009:1,2017-01-01T20:12:00Z,27.8398,-97.0727,0.0,3.5,204.0,4.8,'11111222,11111222,11111222' 
TCOON,ioos:station:TCOON:009:1,2017-01-01T20:18:00Z,27.8398,-97.0727,0.0,3.5,204.0,4.8,'1111122,1111122,1111122' 